N8SHA Weather Reports


Display with metric or nautical units.
time (UTC)temp
F
wind
direction
speed
MPH
gust
MPH
rain 1hr
in
rain 24hr
in
rain mn
in
humidity
%
barometer
mb
20260831053549 70 199 0.0 2.0 0.00 0.00 0.00 92 1018.0
20260831053045 70 235 0.0 3.0 0.00 0.00 0.00 92 1018.1
20260831052543 70 21 1.0 3.0 0.00 0.00 0.00 92 1017.9
20260831052038 70 197 0.0 3.0 0.00 0.00 0.00 91 1018.1
20260831051536 70 81 0.0 3.0 0.00 0.00 0.00 91 1017.9
20260831051035 70 168 2.0 5.0 0.00 0.00 0.00 91 1017.8
20260831050530 70 180 2.0 4.0 0.00 0.00 0.00 90 1018.1
20260831050028 70 177 1.0 6.0 0.00 0.00 0.00 90 1018.0
20260831045527 70 183 2.0 5.0 0.00 0.00 0.00 91 1017.9
20260831045023 70 188 2.0 4.0 0.00 0.00 0.00 91 1017.9
20260831044518 70 165 1.0 5.0 0.00 0.00 0.00 91 1017.7
20260831044014 70 116 0.0 6.0 0.00 0.00 0.00 92 1018.0
20260831043513 70 186 0.0 5.0 0.00 0.00 0.00 92 1017.8
20260831043008 70 179 2.0 5.0 0.00 0.00 0.00 92 1017.9
20260831042508 70 162 0.0 4.0 0.00 0.00 0.00 92 1017.9
20260831042003 70 145 1.0 4.0 0.00 0.00 0.00 92 1018.0
20260831041458 70 176 0.0 6.0 0.00 0.00 0.00 92 1018.0
20260831040957 70 221 0.0 5.0 0.00 0.00 0.00 92 1018.0
20260831040453 70 179 2.0 6.0 0.00 0.00 0.00 93 1018.0
20260831035949 70 190 1.0 6.0 0.00 0.50 0.50 93 1018.1
20260831035444 70 175 1.0 3.0 0.00 0.50 0.50 93 1018.2
20260831034939 70 198 3.0 6.0 0.00 0.50 0.50 93 1018.0
20260831034434 70 189 1.0 3.0 0.00 0.50 0.50 92 1018.1
20260831033929 70 289 3.0 8.0 0.00 0.50 0.50 92 1018.2
20260831033424 70 183 1.0 4.0 0.00 0.50 0.50 92 1018.1
20260831032919 70 179 2.0 5.0 0.00 0.50 0.50 92 1018.0
20260831032414 70 190 1.0 5.0 0.00 0.50 0.50 92 1018.1
20260831031909 70 200 3.0 7.0 0.00 0.50 0.50 92 1018.0
20260831031409 70 205 2.0 3.0 0.00 0.50 0.50 92 1018.2
20260831030903 70 173 2.0 5.0 0.00 0.50 0.50 92 1018.0
20260831030402 70 255 1.0 5.0 0.00 0.50 0.50 91 1018.0
20260831025900 70 146 0.0 4.0 0.00 0.50 0.50 91 1018.2
20260831025355 70 187 0.0 3.0 0.00 0.50 0.50 91 1018.1
20260831024851 70 170 2.0 5.0 0.00 0.50 0.50 91 1018.0
20260831024350 70 192 1.0 5.0 0.00 0.50 0.50 92 1017.8
20260831023849 70 154 1.0 4.0 0.00 0.50 0.50 92 1017.9
20260831023348 70 214 2.0 4.0 0.00 0.50 0.50 91 1017.8
20260831022844 70 181 2.0 4.0 0.00 0.50 0.50 91 1017.8
20260831022342 70 216 1.0 6.0 0.00 0.50 0.50 92 1017.7
20260831021837 70 162 1.0 4.0 0.00 0.50 0.50 92 1017.6
20260831021337 70 160 0.0 2.0 0.00 0.50 0.50 92 1017.7
20260831020832 70 159 1.0 3.0 0.00 0.50 0.50 92 1017.5
20260831020327 70 214 2.0 4.0 0.00 0.50 0.50 91 1017.5
20260831015822 70 150 0.0 3.0 0.00 0.50 0.50 91 1017.5
20260831015318 70 168 0.0 3.0 0.00 0.50 0.50 91 1017.6
20260831014818 70 147 1.0 3.0 0.00 0.50 0.50 91 1017.7
20260831014313 70 194 2.0 5.0 0.00 0.50 0.50 91 1017.6
20260831013809 70 159 0.0 4.0 0.00 0.50 0.50 91 1017.3
20260831013308 70 304 1.0 5.0 0.00 0.50 0.50 90 1017.4
20260831012803 70 170 2.0 5.0 0.00 0.50 0.50 90 1017.3
20260831012259 70 167 0.0 3.0 0.00 0.50 0.50 90 1017.1
20260831011758 70 141 0.0 5.0 0.00 0.50 0.50 90 1017.1
20260831011253 70 158 2.0 4.0 0.00 0.50 0.50 90 1017.1
20260831010749 70 183 2.0 3.0 0.00 0.50 0.50 91 1017.3
20260831010243 70 200 3.0 4.0 0.00 0.50 0.50 90 1017.3
20260831005739 70 155 1.0 3.0 0.00 0.50 0.50 90 1017.0
20260831005234 70 269 0.0 4.0 0.00 0.50 0.50 90 1016.8
20260831004729 70 117 1.0 4.0 0.00 0.50 0.50 91 1016.8
20260831004226 69 183 1.0 3.0 0.00 0.50 0.50 91 1017.0
20260831003721 69 116 0.0 3.0 0.00 0.50 0.50 91 1017.0
20260831003217 69 117 0.0 2.0 0.00 0.50 0.50 91 1017.0
20260831002716 69 223 0.0 2.0 0.00 0.50 0.50 91 1016.8
20260831002210 69 115 0.0 2.0 0.00 0.50 0.50 91 1016.9
20260831001707 69 89 0.0 2.0 0.00 0.50 0.50 91 1016.7
20260831001207 70 38 1.0 2.0 0.00 0.50 0.50 91 1016.8
20260831000703 70 154 1.0 3.0 0.00 0.50 0.50 91 1016.8
20260831000158 70 133 0.0 2.0 0.00 0.50 0.50 90 1016.8
20260830235657 70 123 1.0 2.0 0.00 0.50 0.50 90 1016.8
20260830235152 70 41 0.0 1.0 0.00 0.50 0.50 90 1016.7
20260830234647 70 116 0.0 1.0 0.00 0.50 0.50 89 1016.6
20260830234143 71 220 1.0 5.0 0.00 0.50 0.50 89 1016.7
20260830233638 71 257 0.0 3.0 0.00 0.50 0.50 88 1016.6
20260830233134 71 195 0.0 4.0 0.00 0.50 0.50 88 1016.5
20260830232629 71 31 0.0 4.0 0.00 0.50 0.50 87 1016.8
20260830232120 72 33 1.0 2.0 0.00 0.50 0.50 86 1016.7
20260830231615 72 44 3.0 5.0 0.00 0.50 0.50 86 1016.9
20260830231114 72 73 3.0 3.0 0.00 0.50 0.50 86 1017.0
20260830230609 72 160 2.0 3.0 0.00 0.50 0.50 85 1017.0
20260830230104 73 99 1.0 2.0 0.00 0.50 0.50 85 1016.8
20260830225600 73 56 1.0 2.0 0.00 0.50 0.50 85 1016.9
20260830225100 73 165 1.0 3.0 0.00 0.50 0.50 85 1017.3
20260830224558 73 153 1.0 2.0 0.00 0.50 0.50 86 1017.0
20260830224055 72 142 0.0 2.0 0.00 0.50 0.50 86 1017.1
20260830223551 72 175 0.0 3.0 0.00 0.50 0.50 86 1017.5
20260830223046 72 95 1.0 2.0 0.00 0.50 0.50 86 1017.5
20260830222540 73 166 0.0 3.0 0.00 0.50 0.50 86 1017.4
20260830222036 73 154 0.0 5.0 0.00 0.50 0.50 86 1017.5
20260830221531 72 217 0.0 3.0 0.00 0.50 0.50 87 1017.6
20260830221022 72 122 0.0 3.0 0.00 0.50 0.50 86 1017.6
20260830220521 72 179 1.0 3.0 0.00 0.50 0.50 87 1017.8
20260830220020 72 181 1.0 3.0 0.00 0.50 0.50 87 1017.7
20260830215520 72 154 1.0 3.0 0.00 0.50 0.50 88 1017.7
20260830215014 72 157 0.0 2.0 0.00 0.50 0.50 89 1017.9
20260830214509 72 111 0.0 3.0 0.00 0.50 0.50 89 1017.8
20260830214004 71 134 1.0 2.0 0.00 0.50 0.50 90 1018.0
20260830213459 71 189 2.0 4.0 0.00 0.50 0.50 90 1018.0
20260830212954 71 124 0.0 2.0 0.00 0.50 0.50 91 1017.9
20260830212450 71 166 1.0 2.0 0.00 0.50 0.50 90 1017.8
20260830211949 71 164 0.0 3.0 0.00 0.50 0.50 90 1017.9
20260830211444 71 182 1.0 3.0 0.00 0.50 0.50 89 1017.9
20260830210940 71 192 0.0 3.0 0.00 0.50 0.50 89 1018.0
20260830210439 71 166 2.0 2.0 0.00 0.50 0.50 90 1017.9
20260830205937 71 173 0.0 4.0 0.00 0.50 0.50 89 1018.0
20260830205436 72 141 0.0 1.0 0.00 0.50 0.50 89 1018.0
20260830204932 72 222 3.0 4.0 0.00 0.50 0.50 88 1017.8
20260830204431 71 159 2.0 3.0 0.00 0.50 0.50 90 1017.7
20260830203926 71 136 0.0 2.0 0.00 0.50 0.50 91 1017.7
20260830203422 71 129 0.0 1.0 0.00 0.50 0.50 92 1017.7
20260830202921 71 117 0.0 1.0 0.00 0.50 0.50 92 1017.7
20260830202417 70 99 0.0 2.0 0.00 0.50 0.50 92 1017.9
20260830201913 71 103 1.0 2.0 0.00 0.50 0.50 91 1017.7
20260830201406 71 131 1.0 2.0 0.00 0.50 0.50 91 1017.5
20260830200902 70 99 1.0 2.0 0.00 0.50 0.50 92 1017.6
20260830200401 70 76 0.0 1.0 0.00 0.50 0.50 93 1017.5
20260830195856 70 119 0.0 2.0 0.00 0.50 0.50 92 1017.4
20260830195350 70 109 0.0 2.0 0.00 0.50 0.50 91 1017.7
20260830194848 70 125 1.0 3.0 0.00 0.50 0.50 91 1017.6
20260830194343 70 113 1.0 2.0 0.00 0.50 0.50 91 1017.7
20260830193837 71 112 1.0 2.0 0.00 0.50 0.50 91 1017.6
20260830193331 71 102 0.0 2.0 0.00 0.50 0.50 91 1017.5
20260830192828 71 168 0.0 2.0 0.00 0.50 0.50 90 1017.7
20260830192327 71 117 0.0 1.0 0.00 0.50 0.50 92 1017.6
20260830191823 71 66 0.0 2.0 0.00 0.50 0.50 91 1017.8
20260830191322 71 95 0.0 2.0 0.00 0.50 0.50 91 1017.7
20260830190819 72 146 2.0 3.0 0.00 0.50 0.50 89 1017.7
20260830190318 72 191 0.0 1.0 0.00 0.50 0.50 90 1017.6
20260830185817 72 166 0.0 2.0 0.00 0.50 0.50 92 1017.4
20260830185313 71 144 1.0 2.0 0.00 0.50 0.50 92 1017.6
20260830184808 71 142 0.0 2.0 0.00 0.50 0.50 93 1017.6
20260830184306 71 247 0.0 1.0 0.00 0.50 0.50 93 1017.8
20260830183801 71 49 0.0 1.0 0.00 0.50 0.50 94 1017.6
20260830183255 71 130 0.0 2.0 0.00 0.50 0.50 93 1018.1
20260830182751 70 154 0.0 3.0 0.00 0.50 0.50 93 1018.1
20260830182247 70 169 2.0 3.0 0.00 0.50 0.50 92 1017.9
20260830181743 70 184 0.0 1.0 0.00 0.50 0.50 94 1018.1
20260830181237 70 146 0.0 2.0 0.00 0.50 0.50 94 1018.0
20260830180736 70 197 0.0 6.0 0.00 0.50 0.50 93 1017.8
20260830180231 70 168 2.0 3.0 0.00 0.50 0.50 93 1017.7
20260830175726 70 210 3.0 4.0 0.00 0.50 0.50 93 1017.8
20260830175221 70 167 2.0 4.0 0.00 0.50 0.50 94 1017.5
20260830174716 70 190 0.0 3.0 0.00 0.50 0.50 94 1017.7
20260830174212 70 162 1.0 4.0 0.00 0.50 0.50 95 1017.6
20260830173711 70 186 2.0 3.0 0.00 0.50 0.50 96 1017.7
20260830173206 69 140 0.0 4.0 0.00 0.50 0.50 96 1017.7
20260830172703 68 189 2.0 3.0 0.00 0.50 0.50 97 1017.9
20260830172200 68 159 3.0 4.0 0.00 0.50 0.50 97 1017.7
20260830171700 68 160 1.0 5.0 0.00 0.50 0.50 98 1017.8
20260830171154 68 187 2.0 5.0 0.00 0.50 0.50 98 1017.9
20260830170649 68 246 5.0 8.0 0.00 0.50 0.50 98 1018.1
20260830170149 68 195 1.0 8.0 0.00 0.50 0.50 99 1018.0
20260830165643 68 158 1.0 3.0 0.00 0.50 0.50 99 1018.2
20260830165139 67 47 1.0 6.0 0.00 0.50 0.50 99 1018.2
20260830164636 67 162 3.0 4.0 0.00 0.50 0.50 99 1018.4
20260830164131 67 174 2.0 4.0 0.00 0.50 0.50 99 1018.3
20260830163627 66 117 0.0 5.0 0.02 0.50 0.50 99 1018.6
20260830163122 66 212 2.0 5.0 0.02 0.50 0.50 99 1018.6
20260830162617 66 175 0.0 4.0 0.00 0.50 0.50 99 1018.7
20260830162112 66 185 2.0 4.0 0.00 0.50 0.50 99 1018.9
20260830161607 66 166 1.0 3.0 0.00 0.50 0.50 99 1019.1
20260830161102 66 178 1.0 4.0 0.00 0.50 0.50 99 1019.0
20260830160558 66 141 1.0 3.0 0.00 0.50 0.50 99 1019.4
20260830160052 66 168 0.0 3.0 0.00 0.50 0.50 99 1019.3
20260830155549 66 139 0.0 3.0 0.00 0.50 0.50 99 1019.5
20260830155044 66 154 0.0 3.0 0.00 0.50 0.50 99 1019.2
20260830154539 65 109 0.0 3.0 0.02 0.50 0.50 99 1019.5
20260830154036 65 89 0.0 3.0 0.02 0.50 0.50 99 1019.5
20260830153532 65 92 0.0 2.0 0.00 0.50 0.50 99 1019.6
20260830153031 65 177 2.0 4.0 0.02 0.50 0.50 99 1019.7
20260830152526 65 185 1.0 5.0 0.00 0.49 0.49 99 1019.8
20260830152025 65 193 3.0 5.0 0.00 0.49 0.49 99 1020.0
20260830151525 65 166 0.0 5.0 0.02 0.49 0.49 99 1019.8
20260830151020 65 164 0.0 4.0 0.02 0.49 0.49 99 1019.8
20260830150519 65 165 2.0 4.0 0.02 0.49 0.49 99 1020.2
20260830150014 65 137 1.0 3.0 0.00 0.48 0.48 99 1020.1
20260830145508 65 157 1.0 4.0 0.00 0.48 0.48 99 1020.0
20260830145003 65 126 0.0 3.0 0.05 0.48 0.48 99 1020.1
20260830144459 64 142 0.0 3.0 0.07 0.48 0.48 99 1020.2
20260830143954 64 235 1.0 6.0 0.09 0.48 0.48 99 1020.3
20260830143450 65 174 1.0 3.0 0.12 0.47 0.47 99 1020.2
20260830142948 65 200 2.0 5.0 0.14 0.46 0.46 99 1020.5
20260830142443 64 130 0.0 3.0 0.09 0.44 0.44 99 1020.3
20260830141938 64 203 1.0 4.0 0.05 0.43 0.43 99 1020.5
20260830141434 64 160 0.0 4.0 0.05 0.42 0.42 99 1020.5
20260830140928 65 152 2.0 4.0 0.12 0.42 0.42 99 1020.4
20260830140424 65 141 0.0 5.0 0.24 0.41 0.41 99 1020.5
20260830135923 65 171 1.0 3.0 0.24 0.39 0.39 99 1020.4
20260830135419 65 230 3.0 4.0 0.12 0.37 0.37 99 1020.2
20260830134914 64 167 0.0 3.0 0.12 0.35 0.35 99 1020.1
20260830134410 64 166 2.0 4.0 0.17 0.35 0.35 99 1020.0
20260830133905 65 156 2.0 2.0 0.17 0.34 0.34 99 1020.2
20260830133401 65 170 0.0 3.0 0.19 0.32 0.32 99 1020.7
20260830132855 65 193 1.0 4.0 0.19 0.30 0.30 99 1020.6
20260830132352 65 180 1.0 3.0 0.17 0.28 0.28 99 1020.3
20260830131851 65 200 1.0 4.0 0.07 0.26 0.26 99 1020.3
20260830131350 65 193 2.0 4.0 0.09 0.26 0.26 99 1020.3
20260830130845 65 190 2.0 3.0 0.19 0.25 0.25 99 1020.4
20260830130341 65 167 3.0 5.0 0.24 0.24 0.24 99 1020.4
20260830125840 65 169 3.0 4.0 0.24 0.22 0.22 99 1020.6
20260830125336 65 148 0.0 4.0 0.21 0.20 0.20 99 1020.5
20260830124833 65 180 2.0 3.0 0.17 0.17 0.17 99 1020.3
20260830124328 65 191 2.0 5.0 0.19 0.16 0.16 99 1020.4
20260830123825 65 145 0.0 4.0 0.19 0.14 0.14 99 1020.4
20260830123321 65 156 2.0 4.0 0.19 0.13 0.13 99 1020.3
20260830122819 65 180 0.0 2.0 0.14 0.11 0.11 99 1020.5
20260830122313 65 157 0.0 1.0 0.12 0.09 0.09 99 1020.5
20260830121809 65 192 0.0 3.0 0.07 0.08 0.08 99 1020.5
20260830121308 65 169 0.0 2.0 0.02 0.07 0.07 99 1020.5
20260830120803 65 243 0.0 1.0 0.00 0.07 0.07 99 1020.5
20260830120259 65 104 2.0 2.0 0.02 0.07 0.07 99 1020.5
20260830115755 65 89 0.0 1.0 0.05 0.07 0.07 99 1020.5
20260830115251 65 138 0.0 1.0 0.02 0.07 0.07 99 1020.5
20260830114747 65 52 0.0 1.0 0.02 0.06 0.06 99 1020.4
20260830114242 65 75 0.0 2.0 0.02 0.06 0.06 99 1020.0
20260830113737 65 55 2.0 2.0 0.02 0.06 0.06 99 1019.8
20260830113232 65 65 0.0 2.0 0.00 0.06 0.06 99 1019.7
20260830112728 65 81 1.0 2.0 0.02 0.06 0.06 99 1019.3
20260830112224 65 75 0.0 2.0 0.02 0.06 0.06 99 1019.1
20260830111719 65 50 0.0 2.0 0.00 0.05 0.05 99 1019.1
20260830111214 65 89 0.0 1.0 0.00 0.05 0.05 98 1019.0
20260830110709 65 129 0.0 1.0 0.00 0.05 0.05 98 1018.6
20260830110206 65 117 0.0 1.0 0.00 0.05 0.05 98 1018.6
20260830105705 65 70 1.0 1.0 0.00 0.05 0.05 98 1018.7
20260830105201 65 62 0.0 1.0 0.00 0.05 0.05 98 1018.6
20260830104657 65 75 0.0 1.0 0.00 0.05 0.05 98 1018.6
20260830104154 65 89 0.0 1.0 0.00 0.05 0.05 98 1018.6
20260830103652 65 69 0.0 1.0 0.00 0.05 0.05 98 1018.6
20260830103148 65 129 0.0 2.0 0.00 0.05 0.05 98 1018.6
20260830102647 65 134 0.0 2.0 0.00 0.05 0.05 98 1018.9
20260830102143 65 37 0.0 1.0 0.00 0.05 0.05 98 1018.8
20260830101639 65 147 0.0 0.0 0.00 0.05 0.05 98 1019.0
20260830101138 65 89 0.0 1.0 0.00 0.05 0.05 98 1019.0
20260830100633 65 55 0.0 1.0 0.00 0.05 0.05 98 1018.9
20260830100127 65 107 0.0 1.0 0.00 0.05 0.05 98 1019.0
20260830095626 65 79 0.0 1.0 0.00 0.05 0.05 97 1018.8
20260830095123 65 87 0.0 2.0 0.00 0.05 0.05 97 1019.0
20260830094619 65 75 0.0 1.0 0.00 0.05 0.05 97 1019.0
20260830094114 65 129 0.0 1.0 0.00 0.05 0.05 97 1018.9
20260830093609 65 117 0.0 2.0 0.00 0.05 0.05 97 1019.1
20260830093105 65 67 0.0 1.0 0.02 0.05 0.05 97 1019.3
20260830092554 65 75 0.0 2.0 0.02 0.05 0.05 97 1019.3
20260830092052 65 102 0.0 1.0 0.00 0.05 0.05 97 1019.3
20260830091546 65 85 1.0 2.0 0.00 0.05 0.05 96 1019.3
20260830091045 65 132 0.0 1.0 0.02 0.05 0.05 96 1019.3
20260830090540 65 89 0.0 2.0 0.05 0.05 0.05 96 1019.3
20260830090035 65 94 0.0 2.0 0.05 0.04 0.04 96 1019.4
20260830085529 65 62 0.0 2.0 0.02 0.04 0.04 96 1019.7
20260830085026 65 44 1.0 2.0 0.00 0.04 0.04 96 1019.7
20260830084521 65 53 0.0 2.0 0.00 0.04 0.04 96 1019.3
20260830084015 65 121 0.0 2.0 0.00 0.04 0.04 95 1019.5
20260830083511 65 196 0.0 2.0 0.02 0.04 0.04 95 1019.2
20260830083010 65 156 0.0 2.0 0.05 0.04 0.04 95 1018.9
20260830082506 65 93 2.0 2.0 0.05 0.03 0.03 95 1019.5
20260830082000 65 137 1.0 2.0 0.02 0.03 0.03 94 1019.8
20260830081455 65 98 0.0 2.0 0.02 0.02 0.02 94 1020.2
20260830080955 65 92 2.0 3.0 0.05 0.02 0.02 94 1019.9
20260830080451 65 117 0.0 2.0 0.05 0.02 0.02 93 1020.3
20260830075950 65 105 1.0 2.0 0.02 0.02 0.02 93 1020.5
20260830075445 65 47 0.0 1.0 0.00 0.01 0.01 92 1020.3
20260830074941 65 45 0.0 2.0 0.00 0.01 0.01 92 1020.2
20260830074437 65 44 0.0 2.0 0.00 0.01 0.01 92 1020.1
20260830073932 65 69 0.0 2.0 0.00 0.01 0.01 91 1019.9
20260830073429 66 92 1.0 2.0 0.02 0.01 0.01 91 1020.2
20260830072924 66 141 0.0 2.0 0.02 0.01 0.01 91 1020.1
20260830072419 66 113 1.0 2.0 0.02 0.01 0.01 90 1020.3
20260830071919 67 89 0.0 1.0 0.00 0.00 0.00 89 1020.3
20260830071414 67 89 0.0 1.0 0.00 0.00 0.00 87 1020.4
20260830070912 67 75 0.0 1.0 0.00 0.00 0.00 86 1020.3
20260830070407 67 66 0.0 1.0 0.00 0.00 0.00 85 1020.5
20260830065906 67 37 0.0 1.0 0.00 0.00 0.00 85 1020.3
20260830065401 67 75 0.0 0.0 0.00 0.00 0.00 84 1020.3
20260830064859 67 62 0.0 0.0 0.00 0.00 0.00 85 1020.2
20260830064354 67 117 0.0 0.0 0.00 0.00 0.00 85 1020.2
20260830063848 68 104 0.0 1.0 0.00 0.00 0.00 85 1020.2
20260830063343 68 62 0.0 2.0 0.00 0.00 0.00 85 1020.1
20260830062837 68 124 0.0 1.0 0.00 0.00 0.00 85 1020.1
20260830062336 68 76 0.0 1.0 0.00 0.00 0.00 85 1020.1
20260830061832 67 129 1.0 2.0 0.00 0.00 0.00 86 1020.2
20260830061332 67 66 0.0 1.0 0.00 0.00 0.00 85 1020.0
20260830060828 67 92 0.0 1.0 0.00 0.00 0.00 85 1020.1
20260830060325 67 129 0.0 1.0 0.00 0.00 0.00 85 1020.0
20260830055825 67 55 0.0 1.0 0.00 0.00 0.00 85 1020.1
20260830055321 68 114 1.0 1.0 0.00 0.00 0.00 85 1020.1
20260830054821 68 104 0.0 1.0 0.00 0.00 0.00 85 1020.2
20260830054317 68 134 1.0 2.0 0.00 0.00 0.00 85 1020.5